[[{"header":{"parameterUnit":"m.s-1","parameterCategory":1,"la1":30.2991,"la2":30.254,"lo1":-89.0895,"lo2":-89.0444,"dy":0.0017,"dx":0.0017,"nx":28,"ny":28,"refTime":"2024-08-28T21:00:00:Z","depth":0,"parameterNumber":2,"parameterNumberName":"U-component_of_WINDS"},"data":[0,0,0,0,0,0,0,0,0,0,0,0,0,0,0,0,0,0,0,0,0,0,0,0,0,0,0,0,0,0,0,0,0,0,0,0,0,0,0,0,0,0,0,0,0,0,0,0,0,0,0,0,0,0,0,0,0,0,-2.4276,-2.4276,0,-2.43,-2.43,-2.43,-2.427,-2.4269,-2.4268,-2.4267,-2.429,-2.4292,-2.4294,0,0,0,0,0,0,0,0,0,0,0,0,0,-2.4202,-2.4204,-2.4275,-2.4276,-2.4276,-2.43,-2.43,-2.43,-2.4271,-2.4269,-2.4268,-2.4267,-2.429,-2.4292,-2.4294,0,0,0,0,0,0,0,0,0,0,0,0,0,-2.4231,-2.4204,-2.4275,-2.4264,-2.4263,-2.43,-2.43,-2.43,-2.4271,-2.4269,-2.4268,-2.4266,-2.4289,-2.4292,-2.4294,-2.4342,0,0,-2.4302,-2.4303,0,0,0,0,0,0,0,0,-2.4229,-2.4234,-2.4266,-2.4265,-2.4264,-2.428,-2.4283,-2.4314,-2.4271,-2.4268,-2.4267,-2.4265,-2.4288,-2.4291,-2.4299,-2.4343,-2.4344,-2.4302,-2.4303,-2.4304,-2.4305,0,0,0,0,0,0,0,-2.4227,-2.4232,-2.4285,-2.4266,-2.4265,-2.4257,-2.426,-2.4288,-2.4287,-2.4268,-2.4266,-2.4269,-2.4288,-2.4297,-2.4299,-2.4344,-2.4302,-2.4304,-2.4305,-2.4306,-2.4428,-2.443,0,0,0,0,0,0,-2.4227,-2.4231,-2.4284,-2.4286,-2.4242,-2.426,-2.4263,-2.4277,-2.4287,-2.4287,-2.4271,-2.4268,-2.4293,-2.4296,-2.43,-2.4356,-2.4304,-2.4307,-2.4308,-2.4427,-2.4429,-2.4431,0,0,0,0,0,0,-2.4226,-2.4232,-2.4283,-2.4258,-2.4264,-2.4263,-2.4279,-2.4278,-2.4287,-2.4289,-2.4288,-2.428,-2.4292,-2.4296,-2.4332,-2.4356,-2.4308,-2.431,-2.4425,-2.4427,-2.443,-2.4468,0,0,0,0,0,0,-2.4224,-2.4232,-2.425,-2.4258,-2.4265,-2.4315,-2.4281,-2.428,-2.4291,-2.4288,-2.4297,-2.4297,-2.4291,-2.4328,-2.4334,-2.4359,-2.4312,-2.4422,-2.4426,-2.4429,-2.4465,-2.4472,-2.4478,0,0,0,0,0,-2.4221,-2.426,-2.4251,-2.4258,-2.4288,-2.4317,-2.432,-2.4313,-2.4294,-2.4312,-2.4313,-2.4297,-2.4353,-2.4332,-2.4338,-2.4364,-2.4421,-2.4425,-2.4429,-2.4462,-2.447,-2.4478,0,0,0,0,0,0,-2.4254,-2.4261,-2.4251,-2.4294,-2.4305,-2.4311,-2.4334,-2.4322,-2.4339,-2.4335,-2.4324,-2.4327,-2.4364,-2.4368,-2.4344,-2.4411,-2.4383,-2.4389,-2.4406,-2.4415,-2.4421,-2.4419,-2.4314,0,0,0,0,0,-2.4266,-2.4289,-2.4294,-2.4331,-2.4337,-2.4335,-2.4347,-2.434,-2.4351,-2.4355,-2.4359,-2.4369,-2.4389,-2.4402,-2.4421,-2.4466,-2.4467,-2.4486,-2.4493,-2.4499,-2.4503,-2.4526,-2.4534,-2.4444,-2.4444,-2.4444,0,0,-2.4291,-2.4298,-2.4313,-2.4338,-2.4345,-2.4368,-2.4339,-2.4365,-2.4381,-2.4359,-2.4392,-2.4395,-2.4407,-2.4447,-2.4464,-2.4451,-2.4528,-2.4504,-2.4508,-2.4509,-2.4531,-2.4539,-2.4547,-2.4446,-2.4446,-2.4446,0,0,-2.4349,-2.4357,-2.4388,-2.4397,-2.4409,-2.4408,-2.4415,-2.4424,-2.4425,-2.4459,-2.4442,-2.4462,-2.4497,-2.4505,-2.4514,-2.4576,-2.4561,-2.4582,-2.4616,-2.4638,-2.4646,-2.4652,-2.4673,-2.468,-2.4587,-2.4587,-2.4587,0,-2.4379,-2.4413,-2.4406,-2.4433,-2.4444,-2.4426,-2.4457,-2.4465,-2.4483,-2.4491,-2.4476,-2.4518,-2.4525,-2.4566,-2.4581,-2.4589,-2.4597,-2.458,-2.4645,-2.4651,-2.4657,-2.4677,-2.4685,-2.4589,-2.4589,-2.4589,-2.4588,0,-2.4449,-2.4473,-2.4497,-2.4515,-2.4529,-2.4558,-2.4554,-2.4569,-2.4562,-2.4562,-2.4596,-2.4603,-2.4622,-2.4632,-2.4624,-2.4672,-2.4663,-2.4647,-2.4619,-2.4668,-2.4686,-2.4694,-2.4592,-2.4592,-2.4591,-2.459,0,0,-2.4527,-2.454,-2.4549,-2.4557,-2.4569,-2.4587,-2.4616,-2.4635,-2.4647,-2.4661,-2.4683,-2.4713,-2.4698,-2.4709,-2.4702,-2.4722,-2.4769,-2.4704,-2.4704,-2.4714,-2.4821,-2.4832,-2.4841,-2.4761,-2.4762,-2.4763,-2.4819,0,-2.4583,-2.4632,-2.4627,-2.4673,-2.4695,-2.4678,-2.4703,-2.4713,-2.4714,-2.4732,-2.4733,-2.4754,-2.4733,-2.4739,-2.4758,-2.476,-2.479,-2.4756,-2.4781,-2.4782,-2.4777,-2.485,-2.4862,-2.4915,-2.4827,-2.4828,-2.4829,0,-2.4656,-2.4672,-2.4721,-2.4729,-2.4738,-2.476,-2.4777,-2.4796,-2.4806,-2.4806,-2.4817,-2.4808,-2.4835,-2.4808,-2.4846,-2.4822,-2.4833,-2.4835,-2.4837,-2.4837,-2.4807,-2.4852,-2.4931,-2.4939,-2.484,-2.4839,-2.4838,0,-2.4706,-2.474,-2.4773,-2.478,-2.4792,-2.4808,-2.4813,-2.4822,-2.4834,-2.4849,-2.4857,-2.4875,-2.4884,-2.4898,-2.4893,-2.4875,-2.4932,-2.4905,-2.4931,-2.4931,-2.4942,-2.4941,-2.5023,-2.4951,-2.4951,-2.4951,-2.4951,0,-2.4769,-2.4799,-2.4796,-2.4816,-2.4849,-2.4843,-2.4875,-2.4879,-2.4887,-2.4908,-2.4895,-2.4914,-2.4907,-2.4926,-2.4922,-2.4953,-2.4958,-2.4957,-2.4956,-2.4958,-2.4958,-2.4963,-2.4959,-2.4953,-2.4953,-2.4952,-2.4952,0,-2.483,-2.4829,-2.4864,-2.4872,-2.4875,-2.4899,-2.4906,-2.4925,-2.4925,-2.4951,-2.4956,-2.4956,-2.4978,-2.4975,-2.4999,-2.4996,-2.5035,-2.5029,-2.5031,-2.5029,-2.5055,-2.5052,-2.5142,-2.5153,-2.5075,-2.5076,-2.5077,0,-2.487,-2.4893,-2.4904,-2.4916,-2.4923,-2.4944,-2.4956,-2.495,-2.4963,-2.4978,-2.4995,-2.5015,-2.5031,-2.5066,-2.5068,-2.5086,-2.508,-2.511,-2.5082,-2.5083,-2.5079,-2.5077,-2.5078,-2.5115,-2.5116,-2.5117,-2.5117,0,-2.494,-2.4939,-2.4957,-2.4975,-2.499,-2.5004,-2.5016,-2.5027,-2.5023,-2.5038,-2.506,-2.5072,-2.5097,-2.5117,-2.5134,-2.5139,-2.5127,-2.5126,-2.5133,-2.5134,-2.5134,-2.5133,-2.5044,-2.5124,-2.5123,-2.5123,-2.5122,-2.5122,-2.4991,-2.501,-2.5021,-2.5041,-2.505,-2.5062,-2.508,-2.5083,-2.5101,-2.512,-2.5116,-2.514,-2.515,-2.5172,-2.5179,-2.5198,-2.5187,-2.5197,-2.5199,-2.5201,-2.5204,-2.5132,-2.5201,-2.5201,-2.5201,-2.5201,-2.5201,0,-2.5059,-2.5065,-2.5084,-2.5102,-2.5118,-2.5107,-2.512,-2.5134,-2.5156,-2.5166,-2.5182,-2.5207,-2.5227,-2.523,-2.5249,-2.5263,-2.5258,-2.5268,-2.5266,-2.5267,-2.5213,-2.5205,-2.5271,-2.5271,-2.5271,-2.5271,-2.5271,-2.5271,-2.5097,-2.5128,-2.5128,-2.5164,-2.5169,-2.5193,-2.5202,-2.5212,-2.5221,-2.5249,-2.5265,-2.5268,-2.5275,-2.5294,-2.5311,-2.5312,-2.5319,-2.533,-2.5329,-2.5278,-2.5271,-2.5264,-2.5256,-2.5332,-2.5332,-2.5381,-2.5381,-2.5382]},{"header":{"parameterUnit":"m.s-1","parameterCategory":1,"la1":30.2991,"la2":30.254,"lo1":-89.0895,"lo2":-89.0444,"dy":0.0017,"dx":0.0017,"nx":28,"ny":28,"refTime":"2024-08-28T21:00:00:Z","depth":0,"parameterNumber":3,"parameterNumberName":"V-component_of_WINDS"},"data":[0,0,0,0,0,0,0,0,0,0,0,0,0,0,0,0,0,0,0,0,0,0,0,0,0,0,0,0,0,0,0,0,0,0,0,0,0,0,0,0,0,0,0,0,0,0,0,0,0,0,0,0,0,0,0,0,0,0,3.4066,3.4066,0,3.4083,3.4083,3.4083,3.4011,3.4009,3.4007,3.4005,3.4019,3.4022,3.4024,0,0,0,0,0,0,0,0,0,0,0,0,0,3.3969,3.3971,3.4066,3.4066,3.4066,3.4083,3.4083,3.4083,3.4011,3.4009,3.4006,3.4004,3.4019,3.4021,3.4024,0,0,0,0,0,0,0,0,0,0,0,0,0,3.4001,3.3972,3.4066,3.4033,3.403,3.4083,3.4083,3.4083,3.4012,3.4009,3.4005,3.4003,3.4018,3.4021,3.4025,3.411,0,0,3.4035,3.4037,0,0,0,0,0,0,0,0,3.3999,3.4004,3.4037,3.4035,3.4032,3.4041,3.4054,3.4092,3.4013,3.4019,3.4005,3.4001,3.4029,3.4032,3.4042,3.411,3.4111,3.4036,3.4038,3.4039,3.404,0,0,0,0,0,0,0,3.3997,3.4003,3.4072,3.4038,3.4035,3.4016,3.4017,3.4061,3.4041,3.4018,3.4013,3.4016,3.4027,3.4038,3.4041,3.4111,3.4036,3.4039,3.4041,3.4042,3.4249,3.4252,0,0,0,0,0,0,3.4,3.4002,3.4072,3.4073,3.4007,3.402,3.4021,3.4042,3.4041,3.4037,3.4018,3.4012,3.4034,3.4037,3.4042,3.4139,3.4039,3.4043,3.4045,3.4246,3.425,3.4253,0,0,0,0,0,0,3.3998,3.4006,3.4071,3.4036,3.4043,3.4025,3.4048,3.4044,3.4055,3.4041,3.4037,3.4034,3.4031,3.4037,3.4093,3.4139,3.4044,3.4047,3.4242,3.4247,3.4251,3.4337,0,0,0,0,0,0,3.3995,3.4006,3.4039,3.4037,3.4045,3.4123,3.4051,3.4046,3.4061,3.4053,3.4054,3.4051,3.4029,3.4088,3.4097,3.4142,3.405,3.4237,3.4244,3.425,3.433,3.4345,3.4357,0,0,0,0,0,3.3992,3.4062,3.4041,3.405,3.4086,3.4126,3.413,3.4104,3.4065,3.4097,3.4089,3.4051,3.4133,3.4095,3.4103,3.4151,3.4234,3.4242,3.4249,3.4324,3.4342,3.4357,0,0,0,0,0,0,3.4069,3.4061,3.4038,3.411,3.4119,3.4114,3.4154,3.4124,3.4144,3.4136,3.4102,3.4103,3.4165,3.4164,3.4121,3.4232,3.4177,3.4186,3.4231,3.4247,3.426,3.4258,3.4053,0,0,0,0,0,3.4095,3.4129,3.412,3.4184,3.4191,3.4172,3.4188,3.4168,3.4176,3.4179,3.4174,3.4183,3.421,3.4229,3.4254,3.433,3.4328,3.4367,3.4381,3.4392,3.44,3.4439,3.4455,3.4278,3.4278,3.4278,0,0,3.4147,3.4147,3.4171,3.42,3.4205,3.424,3.4175,3.4216,3.4241,3.4185,3.4237,3.4235,3.4242,3.4309,3.4338,3.4309,3.4449,3.4401,3.441,3.4412,3.4448,3.4465,3.448,3.4283,3.4282,3.4282,0,0,3.4261,3.4265,3.4318,3.4325,3.4333,3.432,3.4333,3.4333,3.4329,3.4381,3.434,3.4369,3.4418,3.4424,3.4434,3.455,3.4516,3.4559,3.4628,3.4667,3.4681,3.4693,3.4733,3.4748,3.4568,3.4568,3.4568,0,3.4325,3.4377,3.4349,3.4392,3.4406,3.4358,3.441,3.4418,3.4434,3.4444,3.4412,3.4471,3.4473,3.454,3.4568,3.4578,3.4591,3.4558,3.4681,3.4693,3.4704,3.4742,3.4757,3.4573,3.4572,3.4572,3.4571,0,3.4454,3.4491,3.4533,3.455,3.4568,3.4616,3.4595,3.4617,3.4595,3.4585,3.4638,3.4639,3.4662,3.4677,3.4656,3.4741,3.4723,3.4687,3.463,3.4726,3.4761,3.4775,3.458,3.4578,3.4577,3.4576,0,0,3.4616,3.4617,3.4633,3.4639,3.4646,3.4673,3.4718,3.4742,3.476,3.4773,3.4809,3.4851,3.4818,3.4829,3.4808,3.4843,3.4933,3.4802,3.4802,3.4825,3.5025,3.505,3.5067,3.4911,3.4914,3.4916,3.5023,0,3.4725,3.4803,3.478,3.4858,3.4891,3.4846,3.4885,3.4892,3.4884,3.491,3.4901,3.4931,3.4886,3.4892,3.4924,3.4915,3.4972,3.4907,3.4943,3.4944,3.494,3.5086,3.5113,3.5215,3.5037,3.5039,3.5041,0,3.4864,3.4883,3.4964,3.4964,3.4976,3.5012,3.5031,3.5057,3.5065,3.5056,3.5069,3.5041,3.5084,3.5029,3.5087,3.5044,3.5057,3.5055,3.5058,3.5059,3.4997,3.5089,3.5246,3.5261,3.5062,3.5061,3.5059,0,3.4971,3.5017,3.5071,3.5078,3.508,3.5106,3.5107,3.5112,3.5127,3.5144,3.5153,3.5175,3.5186,3.5203,3.5181,3.5143,3.5242,3.5186,3.5235,3.5236,3.5257,3.5255,3.5417,3.5269,3.5269,3.5268,3.5268,0,3.5095,3.5147,3.5119,3.5152,3.5208,3.518,3.5236,3.5232,3.5236,3.5267,3.523,3.526,3.523,3.5256,3.524,3.529,3.5296,3.5289,3.5284,3.5292,3.5292,3.5298,3.529,3.5272,3.5271,3.5271,3.527,0,3.5224,3.5208,3.5264,3.5261,3.5261,3.5302,3.5299,3.5329,3.5319,3.5358,3.5366,3.5349,3.5379,3.5359,3.5389,3.5378,3.5443,3.5428,3.544,3.5436,3.5486,3.5481,3.5656,3.5677,3.5517,3.5519,3.552,0,3.5303,3.5342,3.5343,3.5361,3.5366,3.5396,3.5411,3.5386,3.5403,3.5414,3.5442,3.5469,3.5488,3.5538,3.5528,3.555,3.5535,3.5595,3.5538,3.5544,3.5534,3.5531,3.5534,3.5605,3.5607,3.5609,3.561,0,3.5446,3.5436,3.546,3.5482,3.5501,3.5517,3.5529,3.5546,3.552,3.5542,3.5572,3.5587,3.5618,3.5644,3.5662,3.5663,3.5632,3.5628,3.5641,3.5648,3.5653,3.5649,3.547,3.5624,3.5623,3.5622,3.5621,3.562,3.5551,3.5582,3.5588,3.5616,3.5623,3.5635,3.5663,3.5656,3.5681,3.5704,3.5687,3.5722,3.5728,3.5749,3.5754,3.5781,3.5756,3.5775,3.5779,3.5783,3.579,3.565,3.5784,3.5784,3.5783,3.5783,3.5783,0,3.569,3.5691,3.5717,3.5736,3.5758,3.5728,3.574,3.576,3.5792,3.58,3.582,3.5854,3.5879,3.5872,3.5894,3.5917,3.5903,3.5923,3.592,3.5921,3.5811,3.5797,3.5934,3.5934,3.5934,3.5934,3.5934,3.5934,3.5764,3.5816,3.5806,3.586,3.5861,3.5896,3.5905,3.5916,3.5922,3.5962,3.5982,3.5978,3.5979,3.6001,3.6023,3.602,3.6029,3.6054,3.6046,3.5943,3.5928,3.5914,3.5901,3.6057,3.6057,3.6153,3.6154,3.6155]}]]